Location: Moscow
(55.7500°N, 37.5830°E)
Time: 05:55:17
(UTC+03:00)

Vanguard 1 Rocket - Pass Details

Date: 07 December 2021
Orbit: 651 x 4225 km, 34.3° (Epoch: 26 January)

Event Time Altitude Azimuth Distance (km) Brightness Sun altitude
Exits shadow 03:28:58 28° 169° (SSE) 3,704 10.3 -42.2°
Maximum altitude 03:30:06 29° 162° (SSE) 3,808 10.4 -42.1°
Drops below altitude 10° 03:44:48 10° 113° (ESE) 6,550 12.2 -40.2°
Sets 03:51:52 0° 105° (ESE) 8,036 12.9 -39.2°
